TimePDT,TemperatureF,Dew PointF,Humidity,Sea Level PressureIn,VisibilityMPH,Wind Direction,Wind SpeedMPH,Gust SpeedMPH,PrecipitationIn,Events,Conditions,WindDirDegrees,DateUTC
12:54 AM,48.9,46.0,90,30.13,10.0,Calm,Calm,-,N/A,,Clear,0,2013-03-29 07:54:00
1:09 AM,50.0,46.4,87,30.09,10.0,Calm,Calm,-,N/A,,Partly Cloudy,0,2013-03-29 08:09:00
1:22 AM,48.2,46.4,93,30.09,1.5,Calm,Calm,-,N/A,,Scattered Clouds,0,2013-03-29 08:22:00
1:24 AM,48.2,46.4,93,30.09,0.8,Calm,Calm,-,N/A,,Mist,0,2013-03-29 08:24:00
1:35 AM,48.2,48.2,100,30.09,0.2,Calm,Calm,-,N/A,Fog,Fog,0,2013-03-29 08:35:00
1:50 AM,48.2,48.2,100,30.09,0.8,Calm,Calm,-,N/A,,Mist,0,2013-03-29 08:50:00
1:54 AM,48.9,48.0,97,30.13,2.5,Calm,Calm,-,N/A,,Overcast,0,2013-03-29 08:54:00
2:01 AM,48.2,48.2,100,30.09,1.2,Calm,Calm,-,N/A,,Overcast,0,2013-03-29 09:01:00
2:22 AM,48.2,48.2,100,30.09,0.5,Calm,Calm,-,N/A,Fog,Fog,0,2013-03-29 09:22:00
2:33 AM,48.2,46.4,93,30.08,1.5,Calm,Calm,-,N/A,,Overcast,0,2013-03-29 09:33:00
2:44 AM,46.4,44.6,93,30.08,3.0,Calm,Calm,-,N/A,,Mostly Cloudy,0,2013-03-29 09:44:00
2:54 AM,46.9,46.0,97,30.12,1.0,Calm,Calm,-,N/A,,Mist,0,2013-03-29 09:54:00
3:01 AM,48.2,46.4,93,30.08,0.5,Calm,Calm,-,N/A,Fog,Fog,0,2013-03-29 10:01:00
3:07 AM,46.4,46.4,100,30.08,1.0,Calm,Calm,-,N/A,,Mostly Cloudy,0,2013-03-29 10:07:00
3:13 AM,46.4,46.4,100,30.08,3.0,Calm,Calm,-,N/A,,Overcast,0,2013-03-29 10:13:00
3:32 AM,46.4,46.4,100,30.07,10.0,Calm,Calm,-,N/A,,Scattered Clouds,0,2013-03-29 10:32:00
3:54 AM,45.0,44.1,97,30.11,10.0,Calm,Calm,-,N/A,,Clear,0,2013-03-29 10:54:00
4:54 AM,46.0,45.0,96,30.11,8.0,Calm,Calm,-,N/A,,Partly Cloudy,0,2013-03-29 11:54:00
5:02 AM,46.4,44.6,93,30.07,2.5,South,3.5,-,N/A,,Mostly Cloudy,180,2013-03-29 12:02:00
5:08 AM,46.4,44.6,93,30.07,1.0,Calm,Calm,-,N/A,,Mist,0,2013-03-29 12:08:00
5:16 AM,46.4,46.4,100,30.07,0.5,Calm,Calm,-,N/A,Fog,Fog,0,2013-03-29 12:16:00
5:26 AM,46.4,46.4,100,30.07,0.2,Calm,Calm,-,N/A,Fog,Fog,0,2013-03-29 12:26:00
5:38 AM,46.4,46.4,100,30.07,0.5,Calm,Calm,-,N/A,Fog,Fog,0,2013-03-29 12:38:00
5:51 AM,46.4,44.6,93,30.07,2.5,Calm,Calm,-,N/A,,Mostly Cloudy,0,2013-03-29 12:51:00
5:54 AM,45.0,45.0,100,30.11,9.0,Calm,Calm,-,N/A,,Scattered Clouds,0,2013-03-29 12:54:00
6:54 AM,45.0,43.0,93,30.10,10.0,ESE,3.5,-,N/A,,Scattered Clouds,120,2013-03-29 13:54:00
7:54 AM,48.0,45.0,89,30.11,10.0,East,4.6,-,N/A,,Clear,100,2013-03-29 14:54:00
8:54 AM,54.0,48.0,80,30.10,10.0,Calm,Calm,-,N/A,,Clear,0,2013-03-29 15:54:00
9:54 AM,60.1,51.1,72,30.10,10.0,Calm,Calm,-,N/A,,Clear,0,2013-03-29 16:54:00
10:54 AM,62.1,50.0,65,30.11,10.0,WNW,5.8,-,N/A,,Clear,290,2013-03-29 17:54:00
11:54 AM,63.0,48.0,58,30.12,10.0,West,5.8,-,N/A,,Partly Cloudy,270,2013-03-29 18:54:00
12:54 PM,62.1,48.0,60,30.12,10.0,SW,10.4,-,N/A,,Partly Cloudy,220,2013-03-29 19:54:00
1:54 PM,59.0,50.0,72,30.11,10.0,SSW,15.0,23.0,N/A,,Clear,200,2013-03-29 20:54:00
2:54 PM,63.0,50.0,63,30.09,10.0,SSW,10.4,-,N/A,,Clear,210,2013-03-29 21:54:00
3:54 PM,62.1,51.1,67,30.09,10.0,Variable,6.9,-,N/A,,Clear,0,2013-03-29 22:54:00
4:54 PM,57.0,50.0,77,30.10,10.0,West,9.2,-,N/A,,Scattered Clouds,270,2013-03-29 23:54:00
5:47 PM,55.4,50.0,82,30.06,10.0,SW,6.9,-,N/A,,Mostly Cloudy,220,2013-03-30 00:47:00
5:54 PM,55.0,50.0,83,30.10,10.0,SW,5.8,-,N/A,,Mostly Cloudy,230,2013-03-30 00:54:00
6:11 PM,55.4,50.0,82,30.06,10.0,SW,5.8,-,N/A,,Mostly Cloudy,220,2013-03-30 01:11:00
6:54 PM,54.0,48.9,83,30.11,10.0,Calm,Calm,-,N/A,,Overcast,0,2013-03-30 01:54:00
7:54 PM,53.1,50.0,89,30.10,10.0,NNE,4.6,-,N/A,,Overcast,30,2013-03-30 02:54:00
8:18 PM,53.6,50.0,88,30.06,10.0,North,3.5,-,N/A,,Overcast,10,2013-03-30 03:18:00
8:54 PM,53.1,50.0,89,30.11,10.0,Calm,Calm,-,N/A,,Overcast,0,2013-03-30 03:54:00
9:15 PM,53.6,50.0,88,30.07,10.0,Calm,Calm,-,N/A,,Overcast,0,2013-03-30 04:15:00
9:54 PM,53.1,50.0,89,30.12,10.0,Calm,Calm,-,N/A,,Mostly Cloudy,0,2013-03-30 04:54:00
10:09 PM,53.6,50.0,88,30.09,10.0,North,3.5,-,N/A,,Scattered Clouds,10,2013-03-30 05:09:00
10:43 PM,53.6,50.0,88,30.09,10.0,Calm,Calm,-,N/A,,Mostly Cloudy,0,2013-03-30 05:43:00
10:54 PM,53.1,50.0,89,30.12,10.0,Calm,Calm,-,N/A,,Overcast,0,2013-03-30 05:54:00
11:50 PM,53.6,50.0,88,30.10,10.0,West,3.5,-,N/A,,Mostly Cloudy,270,2013-03-30 06:50:00
11:54 PM,53.1,50.0,89,30.14,10.0,WNW,4.6,-,N/A,,Mostly Cloudy,300,2013-03-30 06:54:00